Regional Weather Roundup
Issued by NWS

Home | Current Version | Previous Version | Graphics & Text | Print | Product List | Glossary Off
Versions: 1 2 3 4 5 6 7 8 9 10 11 12 13 14 15 16 17 18 19 20 21 22 23 24 25 26 27 28 29 30 31 32 33 34 35 36 37 38 39 40 41 42 43 44 45 46 47 48 49 50

000
ASUS43 KTOP 271008
RWRKS

WEATHER ROUNDUP FOR KANSAS
NATIONAL WEATHER SERVICE GOODLAND KS
500 AM CDT FRI MAY 27 2016

NOTE:  "FAIR" INDICATES FEW OR NO CLOUDS BELOW 12,000 FEET WITH NO
SIGNIFICANT WEATHER AND/OR OBSTRUCTIONS TO VISIBILITY.

KSZ001>006-013>018-027>032-041>047-271100-
NORTHWEST KANSAS

CITY           SKY/WX    TMP DP  RH WIND       PRES   REMARKS
GOODLAND       CLOUDY    50  48  93 W7        29.69F
HAYS           CLOUDY    27 N/A N/A E8        29.65F
HILL CITY      CLOUDY    57  55  93 E8        29.68F
RUSSELL        PTCLDY    57  55  93 E12       29.64F
$$

KSZ061>065-074>080-084>089-271100-
SOUTHWEST KANSAS

CITY           SKY/WX    TMP DP  RH WIND       PRES   REMARKS
DODGE CITY     PTCLDY    57  56  96 SE12      29.65S
ELKHART          N/A     47  39  74 W9          N/A
GARDEN CITY    CLOUDY    50  48  93 W6        29.67S
GREAT BEND     CLOUDY    59  52  77 SE17      29.67R
LIBERAL        CLEAR     48  37  66 NW10      29.70S
PRATT          CLOUDY    56  55  96 SE12G17   29.68R
$$

KSZ066>073-081>083-090>101-271100-
SOUTHEAST KANSAS

CITY           SKY/WX    TMP DP  RH WIND       PRES   REMARKS
CHANUTE        PTCLDY    59  57  93 N5        29.72F
COFFEYVILLE    CLOUDY    62  59  90 NE12      29.75R
HUTCHINSON     CLOUDY    60  58  92 E6        29.69F
MEDICINE LODGE   N/A     62  58  86 SE6G20    29.68S
NEWTON         CLOUDY    57  54  88 SE9       29.72F
PARSONS        MOCLDY    61  59  93 VRB3      29.75F
WICHITA INTL   CLOUDY    61  57  87 E5        29.69F
WICHITA JABRA  MOCLDY    59  58  96 E9        29.69F
WICHITA MCCONL CLOUDY    59  57  93 E9        29.68F
WINFIELD       MOCLDY    61  58  90 E9        29.70R
$$

KSZ007>012-019>026-033>040-048>060-102>105-271100-
NORTHEAST KANSAS

CITY           SKY/WX    TMP DP  RH WIND       PRES   REMARKS
CONCORDIA      CLOUDY    57  55  93 E7        29.64F
EMPORIA        PTCLDY    58  56  93 SE8       29.71S
LAWRENCE       CLOUDY    60  58  92 N5        29.70F
MANHATTAN      CLOUDY    61  57  87 NE6       29.66F
MARYSVILLE     CLOUDY    61  59  94 SE13G20   29.65F
OLATHE IND     PTCLDY    60  57  89 NW10      29.71F
OLATHE EXE     PTCLDY    59  57  93 NW7       29.69F
SALINA         MOCLDY    60  57  89 S7        29.66F
TOPEKA BILLARD CLOUDY    59  58  96 CALM      29.69F
TOPEKA FORBES  PTCLDY    60  58  92 N6        29.69F
$$




USA.gov is the U.S. government's official web portal to all federal, state and local government web resources and services.